RH
29 28 30 33 34 33 30 28 29 29 26 22 18 17 17 17 18 22 18 16 16 16 15 15 19 21 21 24 32 36 30 17 16 17 27 29 24 18 12 9 15 52 49 30 24
30 31 34 40 40 37 35 32 31 29 28 22 22 21 18 20 20 20 19 18 18 16 17 14 16 19 21 25 42 49 41 22 36 43 44 37 32 26 17 12 9 12 50 51 25
26 29 41 42 39 37 38 35 32 29 26 25 24 22 23 23 24 22 19 16 16 13 14 14 16 17 18 39 74 84 53 73 74 65 63 47 38 35 24 14 12 13 21 58 52
27 36 43 43 39 39 38 34 33 30 28 25 24 19 20 20 24 18 14 13 12 11 11 16 22 27 31 50 89 93 79 74 72 76 71 58 49 42 32 18 17 17 16 35 61
29 34 44 43 41 40 36 33 30 27 26 25 24 20 20 18 22 16 12 10 10 9 11 16 23 44 46 78 100 95 80 87 81 79 72 67 49 54 41 24 21 18 15 19 54
30 37 48 45 44 41 36 35 30 27 26 26 26 23 20 19 15 13 12 11 10 9 10 16 37 56 75 89 99 86 81 89 98 90 82 69 59 69 45 33 24 20 18 15 36
33 47 49 48 42 40 37 33 29 29 24 27 26 23 19 18 15 13 12 11 11 13 19 49 96 100 95 96 100 100 97 99 100 98 97 100 85 51 48 45 31 24 19 16 19
28 43 50 46 43 40 36 31 28 27 25 27 25 23 20 15 14 14 12 10 12 16 25 85 100 96 92 90 95 100 100 100 97 100 99 100 70 62 64 53 40 32 25 19 14
28 33 40 45 43 38 35 30 25 27 26 28 25 24 17 15 15 14 10 8 12 20 37 87 100 99 100 99 100 100 93 96 99 100 97 98 61 74 87 68 50 40 32 24 20
26 32 40 45 44 36 34 28 26 24 25 25 22 19 16 16 16 13 9 13 29 70 100 100 100 91 83 73 82 100 84 82 93 100 100 100 67 94 100 98 69 50 42 31 21
29 38 44 45 45 36 28 26 26 22 22 24 22 19 17 17 15 11 11 30 65 82 100 99 96 100 100 100 100 99 100 83 89 98 100 100 78 100 97 97 90 54 46 36 26
39 42 45 47 40 33 31 31 27 26 25 24 21 19 18 16 13 12 16 30 66 85 100 93 98 100 100 100 100 100 100 100 100 100 97 95 83 91 99 91 89 73 47 38 30
59 55 52 43 40 39 34 34 30 30 27 23 20 20 19 16 13 12 19 40 66 95 88 100 98 92 100 100 100 100 100 100 99 100 97 100 71 99 85 91 89 87 56 43 31
59 54 47 44 43 41 38 34 33 31 27 24 22 21 19 15 15 11 32 63 75 70 82 100 100 97 93 100 94 100 99 100 100 100 100 100 78 93 99 100 94 92 57 53 39
57 53 46 41 39 40 38 36 35 32 30 25 25 23 19 15 13 15 37 73 72 65 70 100 100 100 100 95 90 99 100 98 100 99 97 100 79 58 97 95 97 72 74 53 48
54 48 42 38 34 37 37 38 37 35 32 31 30 26 19 15 13 20 72 83 78 62 55 60 100 100 99 100 96 83 82 66 50 56 73 72 96 65 82 87 100 100 81 59 50
54 44 36 37 42 43 42 40 40 38 34 34 31 24 19 15 19 26 62 85 73 38 54 94 100 100 100 98 93 68 42 40 54 48 49 44 54 59 60 87 88 99 100 70 53
51 36 35 43 50 50 45 43 43 39 38 39 32 23 17 15 22 34 45 56 63 45 48 32 28 63 100 100 85 73 67 52 41 43 35 33 36 48 63 70 81 80 84 96 74
38 25 40 55 58 51 48 48 47 44 42 42 32 25 16 18 31 37 53 57 57 49 42 46 32 31 53 95 94 78 55 35 25 37 37 35 24 28 39 54 79 82 88 98 93
27 24 52 61 62 54 54 54 55 50 50 45 31 21 15 27 41 46 52 70 81 68 51 47 44 30 40 86 93 76 46 36 32 23 22 31 29 22 24 33 48 93 90 98 98
17 21 48 65 63 61 58 59 62 54 56 46 30 17 14 22 53 58 67 90 90 96 80 57 48 44 61 83 71 60 68 68 62 54 44 53 27 23 21 22 28 61 86 97 100
14 27 54 69 67 62 62 67 63 62 62 43 25 16 15 15 40 67 68 85 100 97 69 53 59 61 66 71 75 82 81 54 41 38 71 92 50 99 68 27 20 27 60 80 98
14 29 53 71 66 67 64 74 66 70 64 42 22 16 10 12 35 36 55 79 85 85 63 58 68 73 75 84 73 37 29 39 48 93 80 98 88 100 96 52 26 22 31 68 91
18 41 59 73 73 69 69 81 77 78 62 40 24 15 8 9 30 27 41 62 80 85 67 46 43 71 85 39 30 37 41 49 59 80 94 100 91 100 99 99 72 28 26 46 72
38 54 83 82 84 79 74 84 81 79 62 36 26 12 7 8 20 30 46 81 73 87 84 58 37 36 32 29 35 45 58 46 50 62 96 78 97 69 94 100 100 87 29 31 57
85 95 87 94 88 83 85 88 90 79 55 36 26 11 8 10 17 18 30 85 88 81 89 67 45 37 32 35 40 52 47 44 47 77 98 93 94 80 100 99 93 100 54 31 40
94 92 84 92 85 78 92 96 93 79 52 29 25 12 8 10 12 18 24 46 94 86 99 92 59 61 48 38 46 50 45 52 88 100 100 100 100 78 90 88 78 91 100 60 31
Wind_Speed
27 27 28 32 30 28 27 29 32 35 37 40 38 39 39 41 45 48 51 52 53 55 55 59 64 68 71 73 74 73 78 75 65 60 53 49 48 51 54 53 53 54 54 49 44
28 29 31 32 29 29 31 34 38 39 40 41 42 44 46 46 49 49 53 55 57 61 63 63 69 71 74 79 79 79 81 78 67 63 58 54 51 53 58 57 53 54 57 55 48
31 31 32 28 29 31 34 37 39 41 40 44 48 50 50 51 49 52 54 57 59 60 63 66 72 75 78 81 74 71 81 59 61 62 62 58 57 55 58 60 54 55 59 57 51
31 30 30 31 32 35 38 40 43 43 44 48 52 55 55 56 52 60 61 60 58 61 63 72 78 81 84 83 66 64 64 52 50 54 59 57 62 57 60 60 59 57 61 59 56
33 33 31 32 35 38 41 45 45 45 48 50 56 61 61 62 55 67 66 62 57 58 67 73 76 73 77 68 57 55 43 51 52 57 57 59 61 63 61 63 60 61 62 61 58
35 34 33 35 38 42 45 47 47 50 52 55 60 64 65 64 67 67 65 62 62 64 68 76 73 70 66 60 56 52 50 53 59 63 63 63 65 67 59 62 63 64 63 62 58
36 35 36 39 42 44 47 49 49 53 55 58 64 65 67 67 68 66 64 60 61 68 70 61 50 52 52 49 52 55 56 60 59 61 65 65 71 66 54 63 66 66 66 64 60
37 38 37 40 43 45 48 50 52 55 58 59 65 66 68 70 67 61 65 61 62 67 62 47 50 50 47 42 47 53 60 61 56 60 60 60 69 65 64 64 67 65 65 64 63
39 40 40 42 45 47 50 52 54 56 58 62 65 66 71 73 71 75 73 63 61 65 58 47 45 40 48 48 47 50 53 55 56 52 56 63 65 62 60 62 64 65 66 66 63
41 40 40 42 46 49 52 54 54 55 59 62 66 72 75 74 74 75 66 56 57 49 37 39 46 44 43 48 48 49 49 50 51 49 43 41 60 62 59 60 62 63 65 66 64
42 40 40 43 48 52 52 53 55 59 64 65 69 71 78 75 75 69 59 50 49 44 32 31 33 37 46 46 47 51 50 44 49 48 49 50 55 50 61 65 64 65 64 65 65
41 41 42 46 48 51 53 55 58 61 64 67 68 74 76 76 70 63 53 44 37 26 24 24 34 36 39 40 38 37 40 46 47 42 48 46 49 47 41 58 63 61 67 65 64
41 42 43 45 50 54 57 57 60 64 65 70 72 76 77 76 69 62 47 34 26 26 25 28 30 32 36 35 32 26 29 33 41 40 40 43 45 54 49 51 62 63 63 66 66
42 41 44 49 53 55 57 59 63 65 65 68 72 71 74 72 61 56 42 31 23 22 22 27 32 29 31 30 31 28 26 28 29 33 35 38 50 43 49 38 46 62 65 63 62
40 44 48 52 56 58 59 62 64 64 70 71 73 74 72 68 64 49 35 25 25 22 21 26 28 28 27 31 33 33 30 30 34 31 32 28 44 41 47 52 37 48 65 61 62
44 49 53 56 60 61 62 63 63 64 67 68 72 74 72 66 56 42 28 22 18 20 25 25 32 32 31 28 30 34 35 32 31 33 37 27 35 47 34 44 50 42 63 63 61
47 51 54 59 62 61 62 62 62 64 67 71 72 74 71 60 50 35 27 23 27 17 17 23 25 24 24 25 26 29 34 37 40 39 42 39 39 39 29 37 49 56 52 59 62
48 52 57 60 62 62 63 60 61 64 68 72 73 70 65 59 47 30 26 25 18 13 20 17 23 27 29 27 30 30 34 38 44 47 49 44 43 36 29 30 42 48 57 56 56
49 52 59 60 60 63 62 62 63 66 69 71 72 70 60 52 45 31 24 20 19 21 25 25 21 26 29 28 29 29 31 34 43 49 54 56 46 41 33 25 32 45 53 56 58
51 53 58 59 60 62 62 62 63 67 69 70 69 68 59 48 42 32 23 23 25 27 28 26 24 24 32 32 29 31 33 38 43 45 55 61 59 48 38 32 36 41 51 58 61
55 56 59 60 59 61 62 62 63 66 69 68 66 63 54 49 38 33 25 25 28 30 27 24 25 24 28 31 32 35 39 42 44 47 39 39 51 54 50 43 38 39 45 55 57
57 58 62 62 60 63 62 61 64 65 67 66 62 57 50 46 37 33 29 28 30 24 22 23 25 22 26 35 38 39 37 38 39 39 32 33 36 31 36 45 45 41 39 46 58
59 58 63 65 65 65 64 61 63 64 65 65 61 55 53 43 39 35 31 26 27 22 24 26 27 29 30 30 29 28 26 28 32 31 27 39 27 16 25 36 40 43 45 42 52
60 62 66 64 66 65 66 61 62 63 62 63 59 53 52 41 36 36 32 28 27 26 27 25 22 27 25 22 23 26 24 28 29 28 29 29 30 33 24 25 34 42 44 47 47
60 63 66 62 64 65 66 62 63 64 62 61 58 52 49 43 38 37 33 31 25 23 27 27 21 23 22 24 27 28 29 28 26 27 31 26 29 31 31 37 33 38 43 49 49
60 65 65 59 65 64 65 62 62 63 61 60 58 54 47 40 41 38 35 33 27 25 25 27 26 24 25 27 30 30 28 23 21 28 20 22 20 23 24 30 41 38 42 46 51
61 63 66 61 66 66 64 63 63 63 59 57 58 54 45 43 41 37 37 34 28 23 26 28 30 30 29 29 29 28 26 18 14 23 27 19 16 20 22 26 38 36 36 47 51
Wind_Direction
312 313 311 311 310 311 308 310 315 315 320 323 317 315 315 310 303 300 298 296 296 291 285 279 274 270 268 269 269 267 261 259 257 258 252 243 239 240 240 238 239 236 236 235 232
309 309 310 314 315 314 314 314 314 316 319 321 321 319 318 311 306 304 296 294 292 288 283 279 274 270 268 267 267 265 261 258 257 253 247 239 237 237 238 236 235 237 236 234 231
310 312 314 313 313 314 315 316 315 315 315 317 319 320 317 311 310 302 297 298 294 293 284 280 274 270 266 265 267 268 264 269 260 256 250 239 237 234 236 234 231 235 237 234 231
311 309 312 311 313 313 313 318 318 316 317 318 321 322 322 317 321 308 310 306 298 291 282 275 274 273 270 270 270 264 267 265 252 247 246 240 238 236 233 230 233 231 235 233 230
311 308 310 309 310 312 313 317 317 318 320 319 322 323 322 322 317 312 313 308 302 295 282 278 276 276 273 273 266 260 264 249 240 236 235 234 231 238 231 230 232 232 230 233 230
309 309 311 310 309 311 314 315 317 318 319 319 323 322 321 323 318 317 313 310 304 297 284 277 280 279 275 272 263 261 247 243 239 234 230 229 228 237 228 231 229 232 231 231 230
309 312 314 314 311 313 315 317 317 318 320 320 320 322 320 322 320 320 318 311 294 286 284 286 275 267 273 268 259 251 244 238 238 240 237 241 234 225 225 230 228 230 231 230 227
311 310 312 314 313 316 319 319 320 319 320 320 320 321 322 323 320 323 324 313 299 289 288 282 269 267 267 262 256 252 248 245 238 241 239 243 226 221 226 225 226 226 230 231 228
312 311 313 313 314 317 319 320 322 321 321 320 321 322 323 325 328 334 332 317 299 289 289 282 271 269 260 254 248 248 251 248 247 248 248 243 230 224 227 225 223 224 226 229 232
313 314 313 314 316 318 320 322 325 325 323 322 323 327 327 330 334 335 329 308 292 290 286 278 274 273 257 258 262 251 242 241 243 245 235 247 236 236 229 226 220 220 223 226 227
314 315 314 315 319 322 326 327 328 328 328 326 328 329 330 336 338 334 325 305 294 292 286 273 269 271 264 265 265 259 252 244 246 247 245 235 234 233 232 226 219 216 220 225 225
316 316 316 320 325 330 331 330 329 329 328 329 331 332 335 338 338 333 323 307 299 296 285 280 269 261 259 267 268 265 256 251 252 250 245 242 231 231 230 233 224 216 219 220 222
318 319 320 323 329 331 332 331 331 329 329 331 334 336 337 340 340 334 324 312 302 296 290 275 268 264 269 270 271 266 262 257 254 251 250 241 237 229 233 235 228 217 219 221 221
322 322 325 327 330 331 331 331 331 330 330 334 336 337 339 342 339 335 325 314 303 298 287 275 276 268 271 281 276 278 274 263 259 258 250 248 243 231 221 215 222 218 216 220 222
326 329 330 332 331 331 331 331 331 329 331 335 337 338 341 342 343 336 324 318 308 304 283 277 277 274 276 274 275 284 285 280 277 271 258 250 253 229 233 227 218 220 217 219 218
329 331 330 329 328 330 331 331 330 332 335 336 339 343 342 341 340 334 320 314 307 306 294 278 283 279 274 278 273 272 279 282 283 284 267 256 256 242 224 225 217 215 214 218 217
330 329 333 331 332 332 332 331 331 334 334 338 341 344 343 339 343 331 320 308 314 318 290 290 288 289 285 278 272 271 275 279 279 278 274 273 262 249 227 222 224 223 217 216 215
330 332 333 331 331 331 332 331 332 333 337 339 343 342 341 338 342 329 319 313 305 301 309 296 296 285 289 279 271 270 272 278 283 278 281 275 262 242 244 222 222 224 224 221 214
329 332 333 332 329 331 333 332 335 334 337 341 343 342 338 335 338 330 313 305 301 296 302 302 302 292 283 283 283 277 278 284 296 276 277 263 252 247 240 225 227 221 221 219 218
328 331 334 333 331 332 333 334 335 335 338 342 342 340 337 335 335 331 313 303 295 297 296 294 286 292 277 280 277 276 282 283 289 285 272 259 258 248 241 229 229 218 218 218 216
326 329 333 332 333 332 334 335 336 336 339 341 341 337 335 333 331 329 319 301 298 295 293 292 291 286 277 276 277 280 281 280 279 280 277 262 256 255 247 234 230 225 218 217 216
324 328 332 332 333 333 334 336 335 337 339 340 339 335 331 331 328 322 316 301 299 293 293 301 292 279 269 273 272 277 283 282 282 274 256 247 242 257 259 251 234 228 224 218 214
324 327 330 331 331 334 333 336 334 335 338 337 338 335 333 330 321 321 316 299 294 290 303 306 290 282 277 275 281 285 300 292 273 254 246 245 247 250 256 247 240 231 225 215 215
323 327 327 329 330 333 332 334 333 333 336 336 337 333 332 329 319 319 311 308 291 287 300 296 286 280 280 275 281 290 307 300 269 243 246 254 263 234 235 220 233 231 226 217 211
324 324 325 327 330 333 331 331 332 332 334 334 338 331 331 329 314 314 308 303 295 290 291 286 290 276 266 269 283 298 300 300 260 255 253 249 264 259 255 252 220 224 225 217 212
325 326 327 327 329 331 330 329 330 331 333 333 336 331 330 325 311 313 306 299 293 288 279 278 275 275 266 277 284 296 303 296 264 249 254 263 258 263 258 254 251 220 219 219 214
323 324 326 326 328 328 329 328 329 330 332 332 333 332 330 322 314 309 305 298 288 281 267 274 273 278 272 271 285 305 309 296 271 246 246 242 250 258 260 252 251 233 221 217 214